Regional Weather Roundup
Issued by NWS

Home | Current Version | Previous Version | Graphics & Text | Print | Product List | Glossary On
Versions: 1 2 3 4 5 6 7 8 9 10 11 12 13 14 15 16 17 18 19 20 21 22 23 24 25 26 27 28 29 30 31 32 33 34 35 36 37 38 39 40 41 42 43 44 45 46 47 48 49 50
000
ASUS43 KMPX 012110
RWRMN
WEATHER ROUNDUP FOR MINNESOTA
NATIONAL WEATHER SERVICE TWIN CITIES/CHANHASSEN MN
400 PM CDT TUE SEP 01 2015


NOTE: "FAIR" INDICATES FEW OR NO CLOUDS BELOW 12,000 FEET WITH NO
SIGNIFICANT WEATHER AND/OR OBSTRUCTIONS TO VISIBILITY. N/A MEANS
CURRENT SKY AND/OR WEATHER CONDITIONS ARE NOT AVAILABLE.

MNZ060>063-068>070-012200-
   Twin Cities Metro

CITY           SKY/WX    TMP DP  RH WIND       PRES   REMARKS
TWIN CITIES    CLOUDY    84  73  69 S6        29.89S HX  90
ST PAUL        CLOUDY    83  74  74 E6        29.87F
CRYSTAL        CLOUDY    85  71  63 CALM      29.88R HX  90
BLAINE         CLOUDY    84  72  65 S6        29.88F
LAKEVILLE      CLOUDY    82  73  74 SE6       29.88F
EDEN PRAIRIE   CLOUDY    84  73  69 W3        29.89R HX  90
SOUTH ST PAUL  CLOUDY    84  72  67 SE5       29.87F HX  90
LAKE ELMO      FAIR      82  75  78 CALM      29.90F
$$
MNZ001>005-007-008-013>017-022>024-027-028-012200-
   Northwest Minnesota

CITY           SKY/WX    TMP DP  RH WIND       PRES   REMARKS
BEMIDJI        SUNNY     83  53  34 S3        29.90S
HALLOCK        SUNNY     86  52  30 SW15      29.81S
ROSEAU         SUNNY     84  54  34 SW9       29.85S
WARROAD        SUNNY     82  57  42 SW6       29.86S
THIEF RVR FALL SUNNY     84  52  32 S8        29.86S
CROOKSTON      SUNNY     86  50  28 SW9       29.85F
FOSSTON        SUNNY     88  48  25 SE6       29.89S
DETROIT LAKES  MOSUNNY   84  50  30 S8        29.90F
MOORHEAD       SUNNY     90  48  24 SE7       29.85F
PARK RAPIDS    MOSUNNY   86  50  28 S7        29.91R
MAHNOMEN       FAIR      84  52  32 SE6       29.88S
$$
MNZ006-009>011-018-025>026-012200-
   North Central Minnesota

CITY           SKY/WX    TMP DP  RH WIND       PRES   REMARKS
BAUDETTE       SUNNY     83  49  30 W5        29.86F
FLAG ISLAND    SUNNY     73  57  56 SE9       29.84F
INTL FALLS     SUNNY     81  51  35 VRB3      29.88F
WASKISH        SUNNY     81  57  44 W3        29.89S
BIG FORK       SUNNY     82  54  36 S3        29.91S
LONGVILLE      MOSUNNY   81  55  41 CALM      29.91S
GRAND RAPIDS     N/A     81  52  36 CALM      29.92S
CRANE LAKE     SUNNY     79  45  29 W2        29.92S
ORR            SUNNY     81  46  30 CALM      29.89S
COOK           SUNNY     81  52  36 NW5       29.92S
WALKER         FAIR      80  59  47 E5        29.91S
$$
MNZ012-019>021-037-012200-
   Northeast Minnesota

CITY           SKY/WX    TMP DP  RH WIND       PRES   REMARKS
DULUTH         MOSUNNY   83  64  52 SW7       29.91S
ELY            SUNNY     79  46  31 W8        29.92S
HIBBING        SUNNY     83  49  30 CALM      29.91S
EVELETH        SUNNY     81  52  36 CALM      29.93S
DULUTH HARBOR  MOSUNNY   84  72  65 S6        29.88S
TWO HARBORS    SUNNY     84  73  70 S8        29.88S HX  91
SILVER BAY     SUNNY     81  68  65 S9        29.88S
GRAND MARAIS     N/A     62  59  90 SW7       29.87R
G MARAIS ARPRT SUNNY     79  55  44 W5        29.93S
$$
MNZ029>031-032-039>041-046>048-054>057-064-012200-
   West Central Minnesota

CITY           SKY/WX    TMP DP  RH WIND       PRES   REMARKS
FERGUS FALLS   PTSUNNY   82  63  51 SE6       29.85F
WHEATON        CLOUDY    81  72  74 E8        29.84F
MORRIS         CLOUDY    81  73  78 E9        29.84F
ALEXANDRIA     CLOUDY    81  71  71 SE8       29.90F
ELBOW LAKE     FAIR      81  71  70 SE9       29.86F
WADENA         PTSUNNY   82  57  42 SE7       29.90F
GLENWOOD       CLOUDY    81  73  78 E3        29.89F
APPLETON       CLOUDY    81  72  74 E12       29.82F
BENSON         DRIZZLE   79  70  73 SE7       29.85F
ORTONVILLE     CLOUDY    79  72  78 E7        29.82F
MADISON        CLOUDY    75  72  88 SE8       29.84F
WILLMAR        FAIR      81  73  78 CALM      29.90R
$$
MNZ033>034-036-042>043-049>051-058-059-012200-
   Central Minnesota

CITY           SKY/WX    TMP DP  RH WIND       PRES   REMARKS
ST CLOUD       CLOUDY    83  71  67 S7        29.89S
SAUK CENTRE    FAIR      81  72  74 S6        29.89F
PAYNESVILLE    CLOUDY    80  71  73 E6        29.89F
AITKIN         PTSUNNY   84  61  45 S3        29.90R
PINE RIVER     PTSUNNY   82  57  42 CALM      29.95R
BRAINERD       PTSUNNY   82  60  47 CALM      29.91S
STAPLES        PTSUNNY   82  57  42 SE3       29.90F
LONG PRAIRIE   FAIR      79  70  73 E3        29.90F
LITTLE FALLS   CLOUDY    82  68  61 SE3       29.90S
LITCHFIELD     CLOUDY    82  75  78 CALM      29.90F
BUFFALO        PTSUNNY   82  71  68 SE3       29.90S
MAPLE LAKE     CLOUDY    83  75  79 CALM      29.90F HX  90
$$
MNZ037-044-045-052-053-012200-
   East Central Minnesota

CITY           SKY/WX    TMP DP  RH WIND       PRES   REMARKS
PRINCETON      PTSUNNY   84  72  65 S3        29.90R
MORA           PTSUNNY   81  68  65 SW5       29.91S
CAMBRIDGE        N/A     86  70  58 S5        29.88S HX  90
RUSH CITY      PTSUNNY   84  71  65 S6        29.90S
MOOSE LAKE     MOSUNNY   82  68  61 CALM      29.89S
HINCKLEY       MOCLDY    82  73  74 SW7       29.90S
CLOQUET        MOSUNNY   82  61  47 SW3       29.91S
MCGREGOR       PTSUNNY   84  61  45 W3        29.91S
$$
MNZ071>073-080-081-089-090-097-098-012200-
   Southwest Minnesota

CITY           SKY/WX    TMP DP  RH WIND       PRES   REMARKS
MONTEVIDEO     RAIN      75  72  88 S9        29.88S
GRANITE FALLS  CLOUDY    77  73  88 CALM      29.88F
CANBY          CLOUDY    76  72  85 SE9       29.86F
MARSHALL       CLOUDY    81  70  69 SE9       29.88F
REDWOOD FALLS  CLOUDY    84  72  67 SE8       29.86F
OLIVIA         CLOUDY    77  70  78 SE3       29.87F
PIPESTONE      CLOUDY    81  70  69 S10       29.89F
WINDOM         CLOUDY    82  70  65 S6        29.90F
WORTHINGTON    CLOUDY    81  70  69 S9        29.91S
JACKSON        CLOUDY    81  70  69 S8        29.92S
TRACY          CLOUDY    82  73  75 SE6       29.88F
SLAYTON        CLOUDY    81  73  76 CALM      29.91S
$$
MNZ065>067-074>077-082>085-091>093-012200-
   South Central Minnesota

CITY           SKY/WX    TMP DP  RH WIND       PRES   REMARKS
MANKATO        CLOUDY    84  72  65 S8        29.89F
NEW ULM        PTSUNNY   84  72  65 S9        29.89S
ST JAMES       PTSUNNY   84  73  70 S5        29.90F HX  91
FAIRMONT       CLOUDY    82  68  61 S7        29.91S
GLENCOE        CLOUDY    83  75  76 S3        29.90S HX  91
FARIBAULT      CLOUDY    84  73  70 S9        29.91F HX  91
OWATONNA       PTSUNNY   84  73  70 S8        29.92S HX  91
WASECA         CLOUDY    82  72  69 S10       29.92F
ALBERT LEA     PTSUNNY   82  72  69 S5        29.93S
$$
MNZ078>079-086>088-094>096-012200-
   Southeast Minnesota

CITY           SKY/WX    TMP DP  RH WIND       PRES   REMARKS
ROCHESTER      PTSUNNY   83  74  74 S12       29.94S
RED WING       PTSUNNY   88  72  58 S5        29.88F HX  94
STANTON        PTSUNNY   87  74  65 S5        29.89S HX  94
DODGE CENTER   PTSUNNY   82  72  69 S14       29.94S
WINONA         MOSUNNY   90  72  55 S5        29.90F HX  96
AUSTIN         PTSUNNY   84  72  65 S10       29.93F
PRESTON        PTSUNNY   84  71  65 S13G20    29.94F
$$
ABBREVIATIONS USED IN REMARKS
   TC - TEMPERATURES IN CELSIUS
  WCI - WIND CHILL INDEX
   HX - HEAT INDEX
  VSB - VISIBILITY
$$


USA.gov is the U.S. government's official web portal to all federal, state and local government web resources and services.